Contact Us:
Email: info@sawbill.com
Phone: (218)663-7150
Fax: (218)663-7980
Mail: 4620 Sawbill Trail
Box 2129
Tofte, MN 55615


Powered by
Movable Type 3.15
 
Sawbill Weather History Archives: January 2016
Current Sawbill Weather History | « December 2015 | February 2016 »


Date

High
Temperature

Low
Temperature

Barometric
Pressure

Relative
Humidity 7AM

9 AM
Temperature

Moisture

Snow

1/31/16 35 11 29.96 61% 11 0
1/30/16 36 27 29.74 79% 27 0
1/29/16 28 7 29.68 55% 28 .3" 3.5"
1/28/16 15 -6 29.90 55% 7 0
1/27/16 25 14 29.84 67% 14 .42" 4.5"
1/26/16 22 14 29.88 76% 16 Trace Trace
1/25/16 30 18 29.80 76% 18 .2" 1.5"
1/24/16 26 20 29.94 87% 26 Trace
1/23/16 21 16 29.96 76% 20 .1" 1"
1/22/16 16 7 30.06 79% 16 0
1/21/16 16 7 30.34 67% 7 Trace Trace
1/20/16 14 -10 30.20 70% 11 Trace Trace
1/19/16 8 -13 30.12 60% -10 0
1/18/16 -3 -17 30.26 62% -11 0
1/17/16 -5 -18 30.10 70% -17 0
1/16/16 -1 -18 30.02 70% -18 0
1/15/16 20 0 29.80 70% 0 Trace Trace
1/14/16 16 -2 29.80 77% 13 .23" 3.5"
1/13/16 -1 -14 29.80 64% -2 Trace Trace
1/12/16 -3 -12 29.88 64% -5 0
1/11/16 0 -13 29.96 64% -13 Trace Trace
1/10/16 0 -15 29.92 64% -12 0
1/9/16 8 -14 30.00 64% -13 Trace Trace
1/8/16 32 8 29.82 84% 8 .05" .5"
1/7/16 31 26 29.92 89% 30 .25" 2.5"
1/6/16 26 23 30.06 86% 26 .14" 1.5"
1/5/16 26 16 30.10 72% 23 0
1/4/16 23 13 29.92 72% 16 0
1/3/16 25 12 30.00 75% 13 Trace Trace
1/2/16 23 17 30.12 88% 18 .02" Trace
1/1/16 19 13 29.88 73% 17 0
 


Home I Trip Planning I Rentals and Outfitting I Reservations I Campgrounds I Sawbill Store I Sawbill News I Contact

© 1997 - 2017, Sawbill Canoe Outfitters, Inc. I Privacy Policy